OBJECT M, 61905

Orbit data source: Space-Track

You're viewing an Uncataloged Satellite

Recently launched and/or uncataloged satellites may have evolving metadata. Metadata may include but not limited to: Owner, Maufacturer, Bus, Motor, and Mission.

OBJECT M, 61905 is a Chinese satellite in SSO that was launched on Wed, 13 Nov 2024 UTC via a LIJIAN-1 launch vehicle from the Jiuquan Satellite Launch Center, China (JSC). Unknown objects in Earth's orbit typically refer to objects detected orbiting the Earth but have not yet been identified or cataloged. These objects could be anything from previously untracked satellites, spent rocket stages, debris from satellite collisions, or even natural meteoroids temporarily captured by Earth's gravity.

Loading next visibility...
OBJECT M details
Identifier
61905, 2024-205M
Orbit
SSO
Last TLE update3 hours ago
Origin
Flag of CNZHWK/ZXHK (CN / PRC)
ManufacturerXIOPM/ZXHK
MissionOperational spacecraft
Bus & MotorMN100?, Unknown motor
Mass75 kg wet, 75 kg dry
Launch date (UTC)
2024-11-13 (1 week ago)
Launch vehicle
LIJIAN-1
Launch site
Jiuquan Satellite Launch Center, China (JSC)
Object typeUnknown
Shape & HBRUnknown
Radar Cross SectionMedium (>0.1 m² and <1 m²)

Expand to show TLE details & history

TLE from 3 hours ago
0 OBJECT M
1 61905U 24205M   24326.13252466  .00008571  00000-0  46462-3 0  9996
2 61905  97.4748  38.1455 0014178 251.2032 168.0924 15.14742002  1472
Epoch: 2024-11-21T03:10Z
Definitive object data (Epoch: 2024-11-21T03:10:50.13Z)
Latitude58.61919°
Longitude-82.53486°
Altitude541.28 km
Speed7.592 km/s
True Right ascension01h 43m 10s
True Declination58° 27' 41"
Sunlit
Object was in full shadow at TLE epoch
Visualization TLE readout
Latitude82.54373°
Longitude-164.47018°
Altitude544.51 km
Speed7.592 km/s
Apparent Right ascension16h 09m 08s
Apparent Declination27° 46' 20"
Sunlit
Object is in daylight
Visualization observer readout
Local Sidereal Time03:31:54
Azimuth351.135° N
Elevation-21.759°
Doppler factor1
Orbital elements
Apogee altitude528.516 km
Perigee altitude508.959 km
Semi-major axis6,896.875 km
Eccentricity0.0014178
Inclination97.4748°
RAAN38.1455°
Arg. of periapsis251.2032°
True anomaly168.12586°
Mean anomaly168.0924°
Eccentric anomaly168.10914°
Mean motion3.78935 °/min
BSTAR0.00046462
Orbital period95 mins
Loading maneuver chart data...
Loading historical data...
Loading historical data...
Loading historical data...
Loading historical data...
Loading historical data...
Loading historical data...
Loading historical data...

OBJECT M Visibility forecast

Observer location: undefined°, undefined

Span
Click to sort rows by Start time (UTC) header in descending order
Start Az.
Max El. time (UTC)
Max El. Az.
Max El.
End time (UTC)
End Az.
6 mins2024-11-21 17:45:22.056Z17.914° NNE2024-11-21 17:48:22.056Z108.102° ESE43.566°2024-11-21 17:51:22.056Z185.085° SSW
5 mins2024-11-22 04:26:22.056Z118.446° SE2024-11-22 04:28:22.056Z69.856° E26.511°2024-11-22 04:31:22.056Z12.257° NNE
|